�N����,����,�g�[���i���ԁj���x,�g�[�����x,��g�[���i���ցj���x,����
 2004/02/01, 0:00,16.1,54,11.3,11.4
 2004/02/01, 0:15,15.8,55,11.4,11.4
 2004/02/01, 0:30,15.6,55,11.4,11.6
 2004/02/01, 0:45,15.4,55,11.4,11.7
 2004/02/01, 1:00,15.1,55,11.5,11.6
 2004/02/01, 1:15,15.1,56,11.5,11.7
 2004/02/01, 1:30,14.9,56,11.6,11.8
 2004/02/01, 1:45,14.7,56,11.6,11.9
 2004/02/01, 2:00,14.5,56,11.7,12
 2004/02/01, 2:15,14.3,56,11.8,11.7
 2004/02/01, 2:30,14.2,56,11.8,11.7
 2004/02/01, 2:45,14,56,11.8,11.8
 2004/02/01, 3:00,13.8,56,11.8,11.9
 2004/02/01, 3:15,13.7,56,11.7,12
 2004/02/01, 3:30,13.5,56,11.7,12.1
 2004/02/01, 3:45,13.4,56,11.6,12.2
 2004/02/01, 4:00,13.3,56,11.5,12.3
 2004/02/01, 4:15,13.2,56,11.4,12.4
 2004/02/01, 4:30,13,56,11.3,12.4
 2004/02/01, 4:45,12.9,56,11.2,12.5
 2004/02/01, 5:00,12.8,56,11.1,12.6
 2004/02/01, 5:15,12.7,56,11,12.7
 2004/02/01, 5:30,12.5,56,11,12.7
 2004/02/01, 5:45,12.5,57,10.9,12.8
 2004/02/01, 6:00,12.4,57,10.8,12.9
 2004/02/01, 6:15,12.3,56,10.7,12.9
 2004/02/01, 6:30,12.2,56,10.6,13
 2004/02/01, 6:45,12.1,56,10.5,13.1
 2004/02/01, 7:00,12,56,10.4,13.1
 2004/02/01, 7:15,11.9,56,10.4,13.1
 2004/02/01, 7:30,12,57,10.3,13.2
 2004/02/01, 7:45,12.1,57,10.2,13.3
 2004/02/01, 8:00,12.2,56,10.1,13.3
 2004/02/01, 8:15,12.4,56,10.1,13.3
 2004/02/01, 8:30,12.5,56,10,13.4
 2004/02/01, 8:45,12.7,56,10,13.4
 2004/02/01, 9:00,12.9,56,10,11.2
 2004/02/01, 9:15,14.3,51,10.1,10.8
 2004/02/01, 9:30,15.5,47,10.5,10.6
 2004/02/01, 9:45,15.5,44,10.6,10.7
 2004/02/01,10:00,15.4,43,10.6,10.7
 2004/02/01,10:15,15.8,46,10.7,10.8
 2004/02/01,10:30,16.1,45,11,10.2
 2004/02/01,10:45,16.7,47,11.2,10.2
 2004/02/01,11:00,16.2,42,11.7,10.5
 2004/02/01,11:15,17.6,45,11.6,10.6
 2004/02/01,11:30,18.1,46,11.4,10.7
 2004/02/01,11:45,18.1,46,11.3,10.8
 2004/02/01,12:00,18,49,11.2,10.8
 2004/02/01,12:15,18.1,50,11.2,10.9
 2004/02/01,12:30,18.3,51,11.1,11
 2004/02/01,12:45,18.4,53,11.2,11.1
 2004/02/01,13:00,18.5,54,11.1,11.2
 2004/02/01,13:15,18.6,65,11.2,11.3
 2004/02/01,13:30,18.4,61,11.3,11.4
 2004/02/01,13:45,18.4,59,11.3,11.5
 2004/02/01,14:00,18.4,58,11.3,11.6
 2004/02/01,14:15,18.3,56,11.3,11.7
 2004/02/01,14:30,18.1,55,11.3,11.8
 2004/02/01,14:45,18.2,55,11.4,11.9
 2004/02/01,15:00,18.2,55,11.4,12
 2004/02/01,15:15,18.1,55,11.5,12.4
 2004/02/01,15:30,17.9,54,11.6,11.9
 2004/02/01,15:45,17.8,52,11.7,12
 2004/02/01,16:00,17.8,52,11.7,12.1
 2004/02/01,16:15,17.5,53,11.8,11.9
 2004/02/01,16:30,17.7,51,11.9,12
 2004/02/01,16:45,17.7,52,11.9,11.7
 2004/02/01,17:00,17.6,53,11.9,11.8
 2004/02/01,17:15,17.7,53,11.9,11.9
 2004/02/01,17:30,17.6,54,11.8,12
 2004/02/01,17:45,17.6,54,11.8,12.1
 2004/02/01,18:00,17.7,54,11.8,11.1
 2004/02/01,18:15,17.7,55,11.8,11.3
 2004/02/01,18:30,17.7,54,11.8,11.4
 2004/02/01,18:45,17.8,54,11.8,11.3
 2004/02/01,19:00,17.7,50,11.7,10.8
 2004/02/01,19:15,17.5,50,11.7,10.9
 2004/02/01,19:30,17.7,50,11.7,11
 2004/02/01,19:45,17.7,51,11.7,11.1
 2004/02/01,20:00,17.9,51,11.7,11.3
 2004/02/01,20:15,17.9,52,11.8,11.1
 2004/02/01,20:30,17.8,52,11.8,11.2
 2004/02/01,20:45,17.8,53,11.8,11.3
 2004/02/01,21:00,17.8,53,11.8,11.5
 2004/02/01,21:15,17.7,52,11.8,10.8
 2004/02/01,21:30,17.5,53,11.7,10.7
 2004/02/01,21:45,17.5,52,11.6,10.8
 2004/02/01,22:00,17.8,53,11.6,11
 2004/02/01,22:15,17.8,53,11.6,10.8
 2004/02/01,22:30,17.7,53,11.6,11
 2004/02/01,22:45,17.6,54,11.6,11.2
 2004/02/01,23:00,17.6,55,11.6,11.3
 2004/02/01,23:15,17.6,56,11.6,11.4
 2004/02/01,23:30,17.5,54,11.7,10.3
 2004/02/01,23:45,17.3,54,11.7,10.4
 2004/02/02, 0:00,17.1,55,11.8,10.5
 2004/02/02, 0:15,16.9,55,11.8,11.2
 2004/02/02, 0:30,16.8,54,11.8,11.4
 2004/02/02, 0:45,16.5,54,11.8,11.5
 2004/02/02, 1:00,16.4,54,11.9,11.6
 2004/02/02, 1:15,16.2,54,11.8,11.7
 2004/02/02, 1:30,16,54,11.8,11.8
 2004/02/02, 1:45,16,54,11.8,11.9
 2004/02/02, 2:00,15.9,54,11.8,12
 2004/02/02, 2:15,15.8,54,11.8,12.1
 2004/02/02, 2:30,15.7,55,11.7,12.2
 2004/02/02, 2:45,15.7,55,11.7,12.3
 2004/02/02, 3:00,15.5,55,11.7,12.4
 2004/02/02, 3:15,15.4,55,11.7,12.5
 2004/02/02, 3:30,15.2,55,11.6,12.6
 2004/02/02, 3:45,15.1,55,11.6,12.7
 2004/02/02, 4:00,15.1,55,11.6,12.8
 2004/02/02, 4:15,15,56,11.6,12.8
 2004/02/02, 4:30,14.9,56,11.6,12.9
 2004/02/02, 4:45,14.9,56,11.5,13
 2004/02/02, 5:00,14.8,56,11.5,13.1
 2004/02/02, 5:15,14.7,57,11.5,13.1
 2004/02/02, 5:30,14.7,57,11.4,13.2
 2004/02/02, 5:45,14.6,57,11.4,13.3
 2004/02/02, 6:00,14.5,57,11.4,12.4
 2004/02/02, 6:15,14.5,57,11.4,12.6
 2004/02/02, 6:30,14.4,57,11.4,12.7
 2004/02/02, 6:45,14.3,57,11.4,12.8
 2004/02/02, 7:00,14.8,60,11.3,12.3
 2004/02/02, 7:15,15.4,59,11.4,12.4
 2004/02/02, 7:30,16.1,55,11.5,12.4
 2004/02/02, 7:45,15.9,55,11.6,11.6
 2004/02/02, 8:00,16.1,55,11.5,10.9
 2004/02/02, 8:15,16.3,55,11.8,11
 2004/02/02, 8:30,16.7,55,11.9,11.2
 2004/02/02, 8:45,17.1,56,12.3,11.2
 2004/02/02, 9:00,18.3,53,12.4,11.3
 2004/02/02, 9:15,17.5,56,12.4,11.5
 2004/02/02, 9:30,16.9,58,12.4,11.6
 2004/02/02, 9:45,16.9,60,12.4,11.7
 2004/02/02,10:00,16.9,58,12.4,11.8
 2004/02/02,10:15,17.1,62,12.4,11.6
 2004/02/02,10:30,17.1,63,12.3,11.8
 2004/02/02,10:45,17.8,64,12.3,11.9
 2004/02/02,11:00,18.3,63,12.2,12
 2004/02/02,11:15,18,63,12.2,12.1
 2004/02/02,11:30,17.9,63,12.2,11.9
 2004/02/02,11:45,17.9,63,12.2,12
 2004/02/02,12:00,17.7,64,12.2,12.1
 2004/02/02,12:15,17.7,66,12.2,12.2
 2004/02/02,12:30,17.8,65,12.2,12.3
 2004/02/02,12:45,17.8,63,12.2,12
 2004/02/02,13:00,18,61,12.2,12.1
 2004/02/02,13:15,17.9,60,12.2,12.2
 2004/02/02,13:30,17.4,59,12.3,12.3
 2004/02/02,13:45,17,60,12.3,12.4
 2004/02/02,14:00,17.1,61,12.3,12.2
 2004/02/02,14:15,17,62,12.4,12.3
 2004/02/02,14:30,16.8,62,12.4,12.4
 2004/02/02,14:45,16.8,61,12.4,12.5
 2004/02/02,15:00,16.6,61,12.4,12.6
 2004/02/02,15:15,16.5,62,12.4,12.7
 2004/02/02,15:30,16.3,63,12.4,12.8
 2004/02/02,15:45,16,63,12.4,12.1
 2004/02/02,16:00,16.1,63,12.4,12.3
 2004/02/02,16:15,16.1,64,12.4,12.4
 2004/02/02,16:30,16.1,64,12.4,12.5
 2004/02/02,16:45,16.1,64,12.4,12.6
 2004/02/02,17:00,16.1,64,12.4,12.7
 2004/02/02,17:15,16.7,64,12.4,12.8
 2004/02/02,17:30,16.7,64,12.4,12.9
 2004/02/02,17:45,17,63,12.4,13
 2004/02/02,18:00,17.1,63,12.4,13.1
 2004/02/02,18:15,17.3,62,12.4,13.1
 2004/02/02,18:30,17.3,62,12.5,11.6
 2004/02/02,18:45,17.4,65,12.5,11.7
 2004/02/02,19:00,17.6,73,12.6,11.8
 2004/02/02,19:15,17.8,79,12.6,12
 2004/02/02,19:30,17.7,77,12.6,12.1
 2004/02/02,19:45,17.7,72,12.5,12.2
 2004/02/02,20:00,18.1,69,12.5,12.3
 2004/02/02,20:15,18.2,69,12.5,12.4
 2004/02/02,20:30,18.2,70,12.5,11.3
 2004/02/02,20:45,18.2,70,12.5,11.5
 2004/02/02,21:00,18.6,68,12.5,11.6
 2004/02/02,21:15,18.6,68,12.5,11.8
 2004/02/02,21:30,18.7,68,12.5,11.9
 2004/02/02,21:45,19,66,12.5,12
 2004/02/02,22:00,18.6,66,12.6,11.9
 2004/02/02,22:15,18.6,66,12.7,12
 2004/02/02,22:30,19,64,12.8,11.3
 2004/02/02,22:45,18.6,65,12.9,11.5
 2004/02/02,23:00,18.4,66,13,11.6
 2004/02/02,23:15,18.4,66,12.9,11.8
 2004/02/02,23:30,18.1,67,12.8,12
 2004/02/02,23:45,18,67,12.8,12
 2004/02/03, 0:00,17.7,66,12.9,12.1
 2004/02/03, 0:15,17.4,67,12.9,12.2
 2004/02/03, 0:30,17.2,66,13,12.3
 2004/02/03, 0:45,17,66,13,12.4
 2004/02/03, 1:00,16.8,67,13.1,12.5
 2004/02/03, 1:15,16.6,67,13.2,12.6
 2004/02/03, 1:30,16.4,67,13.3,12.7
 2004/02/03, 1:45,16.3,66,13.3,12.8
 2004/02/03, 2:00,16.1,66,13.3,12.9
 2004/02/03, 2:15,16,66,13.3,13
 2004/02/03, 2:30,15.9,66,13.3,13.1
 2004/02/03, 2:45,15.7,66,13.3,13.2
 2004/02/03, 3:00,15.7,66,13.2,13.3
 2004/02/03, 3:15,15.5,66,13.1,13.4
 2004/02/03, 3:30,15.4,66,13,13.5
 2004/02/03, 3:45,15.3,66,13,13.5
 2004/02/03, 4:00,15.2,66,12.9,13.6
 2004/02/03, 4:15,15.1,67,12.8,13.7
 2004/02/03, 4:30,14.9,67,12.8,13.8
 2004/02/03, 4:45,14.9,67,12.7,13.8
 2004/02/03, 5:00,14.8,67,12.7,13.9
 2004/02/03, 5:15,14.7,67,12.6,13.9
 2004/02/03, 5:30,14.6,67,12.6,14
 2004/02/03, 5:45,14.5,67,12.5,14.1
 2004/02/03, 6:00,14.5,66,12.5,14.1
 2004/02/03, 6:15,14.3,66,12.4,14.2
 2004/02/03, 6:30,14.3,66,12.4,14.3
 2004/02/03, 6:45,14.2,66,12.3,13.1
 2004/02/03, 7:00,15.1,65,12.4,12.7
 2004/02/03, 7:15,16,63,12.6,12.8
 2004/02/03, 7:30,16,60,12.7,12.9
 2004/02/03, 7:45,16.5,59,12.7,11.7
 2004/02/03, 8:00,16.5,58,12.7,11.5
 2004/02/03, 8:15,16.4,61,12.8,11.7
 2004/02/03, 8:30,16.3,65,13,11.8
 2004/02/03, 8:45,16.6,65,13,12.3
 2004/02/03, 9:00,17,64,13,11.9
 2004/02/03, 9:15,16.8,65,13,12
 2004/02/03, 9:30,16.7,64,13,12.1
 2004/02/03, 9:45,16.8,63,13,12
 2004/02/03,10:00,16.9,62,12.8,12.1
 2004/02/03,10:15,17,61,12.7,12.2
 2004/02/03,10:30,16.8,62,12.6,12.3
 2004/02/03,10:45,16.6,63,12.6,12.4
 2004/02/03,11:00,16.7,63,12.6,12.5
 2004/02/03,11:15,16.6,62,12.6,12.5
 2004/02/03,11:30,16.9,61,12.7,12.6
 2004/02/03,11:45,17.2,60,12.7,12.7
 2004/02/03,12:00,17.4,60,12.7,12.8
 2004/02/03,12:15,17.7,60,12.8,12.9
 2004/02/03,12:30,17.8,61,12.8,13
 2004/02/03,12:45,18,64,12.8,13.1
 2004/02/03,13:00,18.1,62,12.9,13.1
 2004/02/03,13:15,18.1,60,12.9,13.2
 2004/02/03,13:30,18.2,59,12.8,13.3
 2004/02/03,13:45,18.2,58,12.7,13.4
 2004/02/03,14:00,17.9,56,12.6,13.5
 2004/02/03,14:15,17.6,55,12.6,13.5
 2004/02/03,14:30,17.5,55,12.6,13.6
 2004/02/03,14:45,17.3,55,12.6,13.7
 2004/02/03,15:00,17.2,55,12.6,13.7
 2004/02/03,15:15,16.9,54,12.5,13.8
 2004/02/03,15:30,17,55,12.5,12.7
 2004/02/03,15:45,16.8,54,12.5,12.9
 2004/02/03,16:00,16.8,54,12.5,12.2
 2004/02/03,16:15,16.6,54,12.5,12.4
 2004/02/03,16:30,16.5,54,12.5,12.5
 2004/02/03,16:45,16.4,54,12.5,12.6
 2004/02/03,17:00,16.3,54,12.5,12.7
 2004/02/03,17:15,16.2,54,12.5,12.8
 2004/02/03,17:30,16,54,12.5,12.9
 2004/02/03,17:45,16,54,12.5,13
 2004/02/03,18:00,16.5,54,12.6,12.3
 2004/02/03,18:15,17.4,53,12.6,12.4
 2004/02/03,18:30,17.5,52,12.5,12.5
 2004/02/03,18:45,17.4,50,12.5,12.6
 2004/02/03,19:00,17.1,49,12.4,12.7
 2004/02/03,19:15,17.1,51,12.3,12.8
 2004/02/03,19:30,17.1,51,12.2,12.9
 2004/02/03,19:45,17,49,12.1,12.9
 2004/02/03,20:00,16.8,48,11.9,13
 2004/02/03,20:15,16.9,47,11.9,13.1
 2004/02/03,20:30,17,46,11.9,13.2
 2004/02/03,20:45,17.1,45,11.8,13.3
 2004/02/03,21:00,17.2,45,11.8,13.3
 2004/02/03,21:15,17.3,44,11.7,13.4
 2004/02/03,21:30,17.3,44,11.6,12.2
 2004/02/03,21:45,17.4,56,11.6,11.5
 2004/02/03,22:00,17.7,53,11.7,11.3
 2004/02/03,22:15,18,49,11.7,11.4
 2004/02/03,22:30,17.7,50,11.7,11.5
 2004/02/03,22:45,17.7,51,11.7,11.3
 2004/02/03,23:00,17.4,48,11.9,11.3
 2004/02/03,23:15,17.4,51,11.8,11.5
 2004/02/03,23:30,17.3,51,11.8,11.6
 2004/02/03,23:45,17.1,54,11.9,11.7
 2004/02/04, 0:00,16.7,54,11.8,11.8
 2004/02/04, 0:15,16.5,54,11.9,11.6
 2004/02/04, 0:30,16.1,54,11.9,11.7
 2004/02/04, 0:45,15.9,53,12,11.8
 2004/02/04, 1:00,15.7,53,11.9,11.9
 2004/02/04, 1:15,15.4,53,11.9,12
 2004/02/04, 1:30,15.2,53,11.8,12.1
 2004/02/04, 1:45,14.9,52,11.7,12.2
 2004/02/04, 2:00,14.8,53,11.7,12.3
 2004/02/04, 2:15,14.6,53,11.6,12.4
 2004/02/04, 2:30,14.5,53,11.5,12.5
 2004/02/04, 2:45,14.3,53,11.4,12.6
 2004/02/04, 3:00,14.1,53,11.4,12.7
 2004/02/04, 3:15,14,53,11.3,12.7
 2004/02/04, 3:30,13.8,53,11.2,12.8
 2004/02/04, 3:45,13.7,53,11.1,12.9
 2004/02/04, 4:00,13.5,53,11,13
 2004/02/04, 4:15,13.4,53,10.9,13
 2004/02/04, 4:30,13.3,53,10.8,13.1
 2004/02/04, 4:45,13.1,53,10.8,13.2
 2004/02/04, 5:00,13,53,10.7,13.2
 2004/02/04, 5:15,12.9,53,10.6,13.3
 2004/02/04, 5:30,12.8,54,10.5,13.3
 2004/02/04, 5:45,12.7,57,10.4,13.4
 2004/02/04, 6:00,12.5,55,10.3,13.5
 2004/02/04, 6:15,12.5,55,10.3,13.5
 2004/02/04, 6:30,12.4,55,10.2,12.1
 2004/02/04, 6:45,12.9,58,10.2,12.1
 2004/02/04, 7:00,13.4,55,10.2,12.2
 2004/02/04, 7:15,14.2,53,10.2,11.5
 2004/02/04, 7:30,14.6,51,10.2,11.6
 2004/02/04, 7:45,14.3,49,10.5,10.5
 2004/02/04, 8:00,14.6,51,10.9,10.7
 2004/02/04, 8:15,16.3,46,11.1,10.8
 2004/02/04, 8:30,14.6,48,11.3,10.9
 2004/02/04, 8:45,14,49,11.2,11
 2004/02/04, 9:00,14.6,49,11.1,11.1
 2004/02/04, 9:15,15.1,48,11.1,11.2
 2004/02/04, 9:30,15.9,45,11.2,11.3
 2004/02/04, 9:45,16.2,45,11.3,11.4
 2004/02/04,10:00,16.3,45,11.4,11.4
 2004/02/04,10:15,16.4,44,11.5,11.5
 2004/02/04,10:30,16.3,45,11.6,11.6
 2004/02/04,10:45,16.2,45,11.8,11.7
 2004/02/04,11:00,16.1,46,11.9,11.8
 2004/02/04,11:15,15.8,46,12,11.9
 2004/02/04,11:30,15.9,46,12.2,12
 2004/02/04,11:45,15.7,47,12.3,12.1
 2004/02/04,12:00,15.8,46,12.4,12.1
 2004/02/04,12:15,15.4,47,12.5,12.2
 2004/02/04,12:30,15.2,47,12.5,12.3
 2004/02/04,12:45,15.1,46,12.5,12.4
 2004/02/04,13:00,14.9,47,12.4,12.5
 2004/02/04,13:15,15,47,12.4,12.6
 2004/02/04,13:30,14.9,47,12.4,12.6
 2004/02/04,13:45,14.8,48,12.4,12.7
 2004/02/04,14:00,14.6,48,12.4,12.8
 2004/02/04,14:15,14.4,48,12.3,12.9
 2004/02/04,14:30,14.2,49,12.3,12.9
 2004/02/04,14:45,14.1,47,12.2,13
 2004/02/04,15:00,13.9,48,12.2,13.1
 2004/02/04,15:15,13.8,49,12.1,13.1
 2004/02/04,15:30,13.7,49,12.1,13.2
 2004/02/04,15:45,13.5,49,12,13.3
 2004/02/04,16:00,13.4,49,11.9,12.1
 2004/02/04,16:15,13.5,49,11.9,12.2
 2004/02/04,16:30,13.5,49,11.8,12
 2004/02/04,16:45,13.5,49,11.7,12.1
 2004/02/04,17:00,13.7,49,11.6,12.2
 2004/02/04,17:15,13.7,49,11.5,12.2
 2004/02/04,17:30,14.6,48,11.5,12.3
 2004/02/04,17:45,15.2,48,11.5,12.4
 2004/02/04,18:00,15.6,48,11.5,12.5
 2004/02/04,18:15,16.1,48,11.5,12.5
 2004/02/04,18:30,16.6,51,11.5,12.6
 2004/02/04,18:45,16.8,52,11.5,11.6
 2004/02/04,19:00,16.8,52,11.5,11.7
 2004/02/04,19:15,17.1,48,11.5,11.8
 2004/02/04,19:30,16.4,47,11.4,11.8
 2004/02/04,19:45,16.1,47,11.3,11.9
 2004/02/04,20:00,16.4,47,11.2,12.1
 2004/02/04,20:15,16.8,49,11.1,11.5
 2004/02/04,20:30,16.5,49,10.9,11.6
 2004/02/04,20:45,16.4,50,10.8,11.7
 2004/02/04,21:00,16.4,50,10.6,11.8
 2004/02/04,21:15,16.5,51,10.5,11.8
 2004/02/04,21:30,16.5,49,10.5,11.9
 2004/02/04,21:45,16.6,52,10.4,12
 2004/02/04,22:00,16.5,50,10.4,12.1
 2004/02/04,22:15,16.5,52,10.5,12.2
 2004/02/04,22:30,16.3,51,10.6,11.7
 2004/02/04,22:45,16.1,52,10.7,11.8
 2004/02/04,23:00,16.1,53,10.8,11.9
 2004/02/04,23:15,16,53,11,12
 2004/02/04,23:30,15.7,53,11.1,12.1
 2004/02/04,23:45,15.2,53,11.1,12.2
 2004/02/05, 0:00,14.8,53,11.1,12.3
 2004/02/05, 0:15,14.6,54,11.1,12.3
 2004/02/05, 0:30,14.5,54,11,12.4
 2004/02/05, 0:45,14.2,54,10.9,12.5
 2004/02/05, 1:00,14.1,54,10.8,12.6
 2004/02/05, 1:15,13.9,54,10.7,12.6
 2004/02/05, 1:30,13.6,54,10.6,12.7
 2004/02/05, 1:45,13.4,54,10.5,12.8
 2004/02/05, 2:00,13.2,54,10.5,12.8
 2004/02/05, 2:15,13.1,54,10.4,12.9
 2004/02/05, 2:30,12.9,54,10.3,13
 2004/02/05, 2:45,12.7,54,10.3,13
 2004/02/05, 3:00,12.6,54,10.2,13.1
 2004/02/05, 3:15,12.4,54,10.1,13.1
 2004/02/05, 3:30,12.2,54,10.1,13.2
 2004/02/05, 3:45,12.1,54,10,13.2
 2004/02/05, 4:00,11.9,53,10,13.3
 2004/02/05, 4:15,11.7,53,9.9,13.3
 2004/02/05, 4:30,11.6,53,9.9,13.4
 2004/02/05, 4:45,11.4,52,9.9,12
 2004/02/05, 5:00,11.3,52,9.8,12.1
 2004/02/05, 5:15,11.2,52,9.8,12.1
 2004/02/05, 5:30,11,52,9.8,12.2
 2004/02/05, 5:45,10.9,52,9.7,12.3
 2004/02/05, 6:00,10.8,53,9.7,12.3
 2004/02/05, 6:15,10.7,53,9.6,11.9
 2004/02/05, 6:30,11.6,60,9.6,12
 2004/02/05, 6:45,12.2,59,9.8,11
 2004/02/05, 7:00,12.6,56,9.9,11.1
 2004/02/05, 7:15,12.9,54,10.1,11.2
 2004/02/05, 7:30,13.4,51,10.2,10.7
 2004/02/05, 7:45,14,50,10.4,10.9
 2004/02/05, 8:00,14.6,53,10.6,10.9
 2004/02/05, 8:15,14.8,52,10.9,10.9
 2004/02/05, 8:30,14,53,11,11
 2004/02/05, 8:45,13.8,54,11,11.1
 2004/02/05, 9:00,13.5,53,11,11.2
 2004/02/05, 9:15,12.9,54,10.9,11.2
 2004/02/05, 9:30,12.6,54,10.8,11.3
 2004/02/05, 9:45,12.2,55,10.7,11.4
 2004/02/05,10:00,12.1,55,10.7,11.5
 2004/02/05,10:15,11.9,56,10.6,11.6
 2004/02/05,10:30,11.7,56,10.5,11.6
 2004/02/05,10:45,11.7,56,10.4,11.7
 2004/02/05,11:00,11.7,57,10.3,11.8
 2004/02/05,11:15,11.7,56,10.3,11.8
 2004/02/05,11:30,11.8,59,10.3,11.9
 2004/02/05,11:45,11.7,57,10.3,12
 2004/02/05,12:00,11.5,57,10.3,12
 2004/02/05,12:15,11.5,58,10.2,12.1
 2004/02/05,12:30,11.4,57,10.2,12.2
 2004/02/05,12:45,11.4,57,10.2,12.2
 2004/02/05,13:00,11.5,58,10.2,12.3
 2004/02/05,13:15,11.6,59,10.2,12.3
 2004/02/05,13:30,11.6,58,10.2,12.4
 2004/02/05,13:45,11.4,57,10.1,12.5
 2004/02/05,14:00,11.2,57,10,12.5
 2004/02/05,14:15,11.2,58,10,12.6
 2004/02/05,14:30,11.2,58,9.9,12.6
 2004/02/05,14:45,11.2,57,9.9,12.7
 2004/02/05,15:00,11.2,58,9.9,12.7
 2004/02/05,15:15,11.2,58,9.9,12.8
 2004/02/05,15:30,11.2,57,9.8,11.2
 2004/02/05,15:45,11.1,56,9.7,11.3
 2004/02/05,16:00,11.2,57,9.7,11.4
 2004/02/05,16:15,11,57,9.7,11.5
 2004/02/05,16:30,11,56,9.7,11.6
 2004/02/05,16:45,10.9,57,9.6,11.6
 2004/02/05,17:00,10.8,57,9.6,11.7
 2004/02/05,17:15,10.8,56,9.5,11.7
 2004/02/05,17:30,10.7,56,9.5,11.8
 2004/02/05,17:45,10.9,56,9.4,11.2
 2004/02/05,18:00,11.6,56,9.3,11.3
 2004/02/05,18:15,12.2,56,9.2,11.4
 2004/02/05,18:30,13.4,54,9.3,11.4
 2004/02/05,18:45,13.7,56,9.4,11.3
 2004/02/05,19:00,14.9,56,9.4,11.3
 2004/02/05,19:15,15,54,9.3,11.4
 2004/02/05,19:30,15.2,51,9.3,11.4
 2004/02/05,19:45,15,50,9.3,11.5
 2004/02/05,20:00,14.9,51,9.2,11.5
 2004/02/05,20:15,15.5,50,9.2,11.2
 2004/02/05,20:30,16.2,49,9.2,11.3
 2004/02/05,20:45,16,51,9,11.3
 2004/02/05,21:00,16.8,48,8.9,11.4
 2004/02/05,21:15,17,46,8.8,11.4
 2004/02/05,21:30,16.9,45,8.7,11
 2004/02/05,21:45,17.2,45,8.7,11.1
 2004/02/05,22:00,17.3,45,8.6,10.8
 2004/02/05,22:15,17.6,43,8.6,10.5
 2004/02/05,22:30,17.7,44,8.8,10.5
 2004/02/05,22:45,17.7,47,8.8,10.6
 2004/02/05,23:00,17.8,47,8.9,10.7
 2004/02/05,23:15,17.3,48,9,10.7
 2004/02/05,23:30,15.7,52,9.1,10.8
 2004/02/05,23:45,15,52,9.1,10.9
 2004/02/06, 0:00,14.4,54,9.1,11
 2004/02/06, 0:15,14,54,9.1,11.1
 2004/02/06, 0:30,13.7,53,9.2,10.9
 2004/02/06, 0:45,13.4,53,9.2,10.9
 2004/02/06, 1:00,12.9,53,9.3,11
 2004/02/06, 1:15,12.7,53,9.3,11.1
 2004/02/06, 1:30,12.4,53,9.2,11.2
 2004/02/06, 1:45,12.2,54,9.2,11.3
 2004/02/06, 2:00,12.1,54,9.2,11.3
 2004/02/06, 2:15,11.9,54,9.1,11.4
 2004/02/06, 2:30,11.7,54,9,11.5
 2004/02/06, 2:45,11.5,55,8.9,11.6
 2004/02/06, 3:00,11.3,55,8.9,11.6
 2004/02/06, 3:15,11.1,54,8.8,11.7
 2004/02/06, 3:30,10.8,54,8.7,11.8
 2004/02/06, 3:45,10.7,55,8.7,11.8
 2004/02/06, 4:00,10.6,55,8.6,10.8
 2004/02/06, 4:15,10.4,55,8.5,10.8
 2004/02/06, 4:30,10.2,55,8.5,10.9
 2004/02/06, 4:45,10.1,55,8.4,11
 2004/02/06, 5:00,9.9,56,8.4,11
 2004/02/06, 5:15,9.8,56,8.3,11.1
 2004/02/06, 5:30,9.6,56,8.2,11.1
 2004/02/06, 5:45,9.6,56,8.2,11.2
 2004/02/06, 6:00,9.4,56,8.1,11.2
 2004/02/06, 6:15,9.4,56,8,11.3
 2004/02/06, 6:30,9.3,56,8,10.4
 2004/02/06, 6:45,9.9,59,7.9,10.6
 2004/02/06, 7:00,10.6,59,8,10.9
 2004/02/06, 7:15,11,57,8.2,10.7
 2004/02/06, 7:30,11.8,54,8.2,10.7
 2004/02/06, 7:45,11.9,48,8.4,10.4
 2004/02/06, 8:00,13,50,8.6,10.2
 2004/02/06, 8:15,13.5,49,9,10.3
 2004/02/06, 8:30,14.2,48,9.3,10.3
 2004/02/06, 8:45,15,46,9.4,10.4
 2004/02/06, 9:00,15.5,44,9.6,10.5
 2004/02/06, 9:15,15.7,43,9.7,10.5
 2004/02/06, 9:30,15.6,43,9.9,10.6
 2004/02/06, 9:45,15.3,44,10,10.6
 2004/02/06,10:00,15.4,44,10.2,10.7
 2004/02/06,10:15,15.5,44,10.4,10.8
 2004/02/06,10:30,15.6,44,10.6,10.9
 2004/02/06,10:45,15.4,45,10.8,10.9
 2004/02/06,11:00,15.4,45,11.1,11
 2004/02/06,11:15,15.5,45,11.3,11.1
 2004/02/06,11:30,15.5,44,11.4,11.1
 2004/02/06,11:45,15.7,43,11.6,11.2
 2004/02/06,12:00,15.6,42,11.8,11.3
 2004/02/06,12:15,15.6,43,11.9,11.3
 2004/02/06,12:30,15.5,43,11.9,11.4
 2004/02/06,12:45,15.4,43,12,11.5
 2004/02/06,13:00,15.2,43,12,11.6
 2004/02/06,13:15,15.2,42,12,11.6
 2004/02/06,13:30,15.1,42,12,11.7
 2004/02/06,13:45,15,42,12,11.8
 2004/02/06,14:00,14.9,42,12,11.8
 2004/02/06,14:15,14.8,42,11.9,11.9
 2004/02/06,14:30,14.6,43,11.8,11.9
 2004/02/06,14:45,14.4,43,11.8,12
 2004/02/06,15:00,14.2,43,11.7,12.1
 2004/02/06,15:15,14,43,11.6,12.1
 2004/02/06,15:30,13.8,43,11.5,12.2
 2004/02/06,15:45,13.6,44,11.4,12.3
 2004/02/06,16:00,13.4,44,11.2,12.3
 2004/02/06,16:15,13.3,44,11,10.7
 2004/02/06,16:30,13.2,45,11,10.8
 2004/02/06,16:45,13.2,45,10.9,10.9
 2004/02/06,17:00,13.3,47,11.1,10.9
 2004/02/06,17:15,14.9,46,11,11
 2004/02/06,17:30,15.5,48,10.7,11
 2004/02/06,17:45,16,52,10.5,11.1
 2004/02/06,18:00,16.1,47,10.4,11.2
 2004/02/06,18:15,16,47,10.1,11.3
 2004/02/06,18:30,16,48,9.9,11.3
 2004/02/06,18:45,16.2,48,9.8,11.4
 2004/02/06,19:00,16.5,47,9.7,11.5
 2004/02/06,19:15,17.1,46,9.7,11.6
 2004/02/06,19:30,17.1,49,9.6,11.7
 2004/02/06,19:45,17.1,47,9.8,11
 2004/02/06,20:00,17.1,44,9.9,11.1
 2004/02/06,20:15,17.2,46,10,11.1
 2004/02/06,20:30,17.3,47,10.1,11.2
 2004/02/06,20:45,17.3,47,10.2,11.3
 2004/02/06,21:00,17.3,48,10.1,11.4
 2004/02/06,21:15,17.2,49,10,11.4
 2004/02/06,21:30,17.1,49,9.9,11.3
 2004/02/06,21:45,17,49,9.7,11.4
 2004/02/06,22:00,16.9,48,9.5,11.5
 2004/02/06,22:15,17.4,47,9.5,11.5
 2004/02/06,22:30,17.9,46,9.4,11.6
 2004/02/06,22:45,17.7,48,9.5,11.3
 2004/02/06,23:00,16.8,49,9.6,11.4
 2004/02/06,23:15,16.4,50,9.6,11.4
 2004/02/06,23:30,16.2,49,9.7,11.5
 2004/02/06,23:45,16.3,49,9.8,11.6
 2004/02/07, 0:00,16.2,47,9.9,11.7
 2004/02/07, 0:15,15.5,48,10,11.7
 2004/02/07, 0:30,14.9,47,10.3,11.8
 2004/02/07, 0:45,14.5,48,10.4,11.9
 2004/02/07, 1:00,14.1,47,10.4,12
 2004/02/07, 1:15,13.6,47,10.4,12
 2004/02/07, 1:30,13.3,47,10.3,12.1
 2004/02/07, 1:45,13.1,48,10.3,12.2
 2004/02/07, 2:00,13,48,10.2,12.3
 2004/02/07, 2:15,12.8,48,10.1,12.3
 2004/02/07, 2:30,12.5,48,10,12.4
 2004/02/07, 2:45,12.4,48,9.9,12.4
 2004/02/07, 3:00,12.3,49,9.8,12.5
 2004/02/07, 3:15,12.1,49,9.7,12.6
 2004/02/07, 3:30,11.9,50,9.6,12.6
 2004/02/07, 3:45,11.9,50,9.5,12.7
 2004/02/07, 4:00,11.7,51,9.3,12.7
 2004/02/07, 4:15,11.7,51,9.2,12.8
 2004/02/07, 4:30,11.5,51,9.1,12.8
 2004/02/07, 4:45,11.4,51,8.9,12.9
 2004/02/07, 5:00,11.2,51,8.8,10.8
 2004/02/07, 5:15,11,51,8.8,11
 2004/02/07, 5:30,10.9,51,8.7,11.1
 2004/02/07, 5:45,10.8,51,8.6,11.1
 2004/02/07, 6:00,10.6,50,8.6,11.2
 2004/02/07, 6:15,10.4,50,8.5,11.3
 2004/02/07, 6:30,10.2,50,8.5,11.3
 2004/02/07, 6:45,10.1,49,8.5,11.4
 2004/02/07, 7:00,9.9,49,8.4,11.4
 2004/02/07, 7:15,9.9,49,8.4,11.5
 2004/02/07, 7:30,9.9,49,8.3,11.5
 2004/02/07, 7:45,9.9,49,8.3,11.6
 2004/02/07, 8:00,10.1,49,8.3,11.6
 2004/02/07, 8:15,10.3,49,8.2,11.7
 2004/02/07, 8:30,9.9,48,8.2,11.7
 2004/02/07, 8:45,9.8,49,8.2,11.8
 2004/02/07, 9:00,9.6,49,8.1,11.8
 2004/02/07, 9:15,9.6,49,8.1,10.2
 2004/02/07, 9:30,10.5,52,8.4,10.5
 2004/02/07, 9:45,11.2,52,8.5,10.5
 2004/02/07,10:00,11.7,53,8.6,10.6
 2004/02/07,10:15,12.5,53,8.6,10.6
 2004/02/07,10:30,13.4,52,8.7,10.7
 2004/02/07,10:45,14.2,50,8.8,10.4
 2004/02/07,11:00,14.3,56,9,10.5
 2004/02/07,11:15,14.8,58,9.3,10.6
 2004/02/07,11:30,15.5,62,9.4,10.6
 2004/02/07,11:45,15.9,64,9.4,10.7
 2004/02/07,12:00,16.8,64,9.2,10.8
 2004/02/07,12:15,16.9,59,9.1,10.8
 2004/02/07,12:30,17.4,58,9.2,11.2
 2004/02/07,12:45,17.1,57,9.1,11.2
 2004/02/07,13:00,16.8,58,9,11.3
 2004/02/07,13:15,16.7,57,8.9,11.3
 2004/02/07,13:30,16.9,56,8.9,11.4
 2004/02/07,13:45,16.6,55,9,10.8
 2004/02/07,14:00,16.9,58,9.1,10.9
 2004/02/07,14:15,16.9,58,9.1,10.9
 2004/02/07,14:30,17,57,9.1,11
 2004/02/07,14:45,16.9,55,9.1,11.1
 2004/02/07,15:00,17,54,9.1,11.2
 2004/02/07,15:15,17,53,9.1,11.2
 2004/02/07,15:30,16.9,53,9.2,11.1
 2004/02/07,15:45,16.6,52,9.5,10.2
 2004/02/07,16:00,16.7,52,9.5,10.5
 2004/02/07,16:15,17.2,52,9.5,10.5
 2004/02/07,16:30,17.1,52,9.4,10.6
 2004/02/07,16:45,17.1,52,9.3,10.7
 2004/02/07,17:00,17.1,52,9.3,10.8
 2004/02/07,17:15,17.1,52,9.2,10.9
 2004/02/07,17:30,16.9,52,9.2,11
 2004/02/07,17:45,16.9,52,9.2,11.1
 2004/02/07,18:00,17,52,9.2,11.1
 2004/02/07,18:15,17,51,9.3,11.2
 2004/02/07,18:30,16.2,49,9.4,10.3
 2004/02/07,18:45,15.3,50,9.3,10.4
 2004/02/07,19:00,14.9,51,9.3,10.5
 2004/02/07,19:15,14.6,51,9.2,10.6
 2004/02/07,19:30,14.2,51,9.1,10.7
 2004/02/07,19:45,13.8,51,9,10.8
 2004/02/07,20:00,13.5,52,8.9,10.8
 2004/02/07,20:15,13.4,51,8.9,10.9
 2004/02/07,20:30,14,52,8.7,11
 2004/02/07,20:45,15,51,8.6,11.1
 2004/02/07,21:00,15.7,50,8.5,11.2
 2004/02/07,21:15,16.1,50,8.5,11.3